Weather History for Fort Campbell, KY

Change the Weather History Date:

Sunday, April 28, 2013

  Actual Average Record
Temperature  
Mean Temperature 57 °F -  
Max Temperature 63 °F 71 °F 82 °F (2002)
Min Temperature 52 °F 51 °F 40 °F (2008)
Degree Days  
Heating Degree Days 8    
Growing Degree Days 7 (Base 50)    
Moisture  
Dew Point 57 °F    
Average Humidity 96    
Maximum Humidity 100    
Minimum Humidity 75    
Precipitation  
Precipitation 0.08 in - - ()
Sea Level Pressure  
Sea Level Pressure 29.93 in    
Wind  
Wind Speed 9 mph (SW)    
Max Wind Speed 18 mph    
Max Gust Speed 17 mph    
Visibility 10 miles    
Events Rain , Thunderstorm    
Averages and records for this station are not official NWS values.
T = Trace of Precipitation, MM = Missing Value Source: NWS Daily Summary

Daily Weather History Graph

Daily Weather History Graph

Search for Another Location

Airport:

Trip Planner

Search our weather history database for the weather conditions in past years. The results will help you decide how hot, cold, wet, or windy it might be!

Date:

Astronomy

Apr. 28, 2013 Rise Set
Actual Time 5:59 AM CDT 7:36 PM CDT
Civil Twilight 5:31 AM CDT 8:03 PM CDT
Nautical Twilight 4:58 AM CDT 8:36 PM CDT
Astronomical Twilight 4:23 AM CDT 9:12 PM CDT
Moon 11:03 PM CDT (4/28) 8:18 AM CDT (4/28)
Length of Visible Light 14h 31m
Length of Day
13h 36m
Waning Gibbous, 88% of the Moon is Illuminated
Apr 28
Waning Gibbous
May 2
Last Quarter
May 9
New
May 17
First Quarter
May 24
Full

Hourly Weather History & Observations

Time (CDT) Temp. Dew Point Humidity Pressure Visibility Wind Dir Wind Speed Gust Speed Precip Events Conditions
12:04 AM 57.2 °F 57.2 °F 100% 29.93 in 9.0 mi SE 5.8 mph - N/A   Light Drizzle
12:06 AM 57.2 °F 57.2 °F 100% 29.93 in 10.0 mi SE 8.1 mph - N/A   Light Drizzle
12:10 AM 57.2 °F 57.2 °F 100% 29.92 in 10.0 mi ESE 10.4 mph - N/A   Light Drizzle
12:11 AM 57.2 °F 57.2 °F 100% 29.92 in 10.0 mi ESE 10.4 mph - N/A   Overcast
12:26 AM 57.2 °F 57.2 °F 100% 29.92 in 10.0 mi SE 9.2 mph - N/A   Light Drizzle
12:40 AM 57.2 °F 57.2 °F 100% 29.94 in 10.0 mi SE 9.2 mph - N/A Rain , Thunderstorm Light Thunderstorms and Rain
12:53 AM 57.2 °F 57.2 °F 100% 29.93 in 10.0 mi ESE 8.1 mph - N/A Thunderstorm Thunderstorm
12:58 AM 57.7 °F 57.7 °F 100% 29.94 in 10.0 mi SE 6.9 mph - 0.02 in Thunderstorm Thunderstorm
12:59 AM 57.2 °F 57.2 °F 100% 29.93 in 10.0 mi SE 8.1 mph - N/A   Overcast
1:01 AM 57.2 °F 57.2 °F 100% 29.93 in 10.0 mi SE 10.4 mph - N/A   Overcast
1:02 AM 57.2 °F 57.2 °F 100% 29.93 in 10.0 mi SE 9.2 mph - N/A Thunderstorm Light Drizzle
1:22 AM 57.2 °F 57.2 °F 100% 29.94 in 7.0 mi SE 5.8 mph - N/A Rain , Thunderstorm Light Rain
1:46 AM 59.0 °F 59.0 °F 100% 29.93 in 10.0 mi SE 5.8 mph - N/A   Light Drizzle
1:47 AM 59.0 °F 59.0 °F 100% 29.93 in 10.0 mi SE 5.8 mph - N/A   Mostly Cloudy
1:58 AM 58.1 °F 58.1 °F 100% 29.92 in 10.0 mi SE 5.8 mph - 0.06 in   Mostly Cloudy
2:58 AM 57.7 °F 57.7 °F 100% 29.90 in 10.0 mi SE 10.4 mph - N/A   Mostly Cloudy
2:59 AM 57.2 °F 57.2 °F 100% 29.90 in 10.0 mi SE 10.4 mph - N/A   Mostly Cloudy
3:16 AM 57.2 °F 57.2 °F 100% 29.89 in 10.0 mi SE 9.2 mph - N/A   Overcast
3:41 AM 57.2 °F 57.2 °F 100% 29.89 in 10.0 mi SE 10.4 mph - N/A   Overcast
3:48 AM 57.2 °F 57.2 °F 100% 29.89 in 10.0 mi SE 10.4 mph - N/A   Overcast
3:58 AM 57.7 °F 57.7 °F 100% 29.89 in 10.0 mi SE 11.5 mph - N/A   Overcast
4:00 AM 57.2 °F 57.2 °F 100% 29.89 in 10.0 mi SE 9.2 mph - N/A   Overcast
4:29 AM 57.2 °F 57.2 °F 100% 29.90 in 10.0 mi SSE 6.9 mph - N/A   Overcast
4:50 AM 57.2 °F 57.2 °F 100% 29.90 in 10.0 mi South 5.8 mph - N/A   Light Drizzle
4:58 AM 57.9 °F 57.9 °F 100% 29.89 in 10.0 mi SSE 9.2 mph - 0.00 in   Light Drizzle
4:59 AM 57.2 °F 57.2 °F 100% 29.89 in 10.0 mi SSE 9.2 mph - N/A   Light Drizzle
5:02 AM 57.2 °F 57.2 °F 100% 29.89 in 10.0 mi SSE 9.2 mph - N/A   Overcast
5:58 AM 58.5 °F 58.5 °F 100% 29.90 in 7.0 mi SSW 8.1 mph - 0.00 in   Overcast
6:30 AM 59.0 °F 59.0 °F 100% 29.90 in 10.0 mi SW 8.1 mph - N/A   Overcast
6:46 AM 59.0 °F 59.0 °F 100% 29.91 in 10.0 mi SSW 8.1 mph - N/A   Overcast
6:56 AM 59.0 °F 59.0 °F 100% 29.92 in 10.0 mi WSW 16.1 mph - N/A   Overcast
6:58 AM 59.0 °F 59.0 °F 100% 29.92 in 10.0 mi West 18.4 mph - N/A   Overcast
7:05 AM 59.0 °F 59.0 °F 100% 29.92 in 10.0 mi West 17.3 mph - N/A   Overcast
7:12 AM 59.0 °F 59.0 °F 100% 29.92 in 10.0 mi WSW 12.7 mph - N/A   Overcast
7:13 AM 59.0 °F 59.0 °F 100% 29.92 in 10.0 mi WSW 12.7 mph - N/A   Overcast
7:45 AM 57.2 °F 57.2 °F 100% 29.94 in 10.0 mi WSW 10.4 mph - N/A   Overcast
7:47 AM 57.2 °F 57.2 °F 100% 29.94 in 10.0 mi WSW 10.4 mph - N/A   Overcast
7:58 AM 57.9 °F 57.9 °F 100% 29.94 in 10.0 mi WSW 12.7 mph - N/A   Overcast
7:59 AM 57.2 °F 57.2 °F 100% 29.94 in 10.0 mi WSW 11.5 mph - N/A   Overcast
8:00 AM 57.2 °F 57.2 °F 100% 29.94 in 10.0 mi WSW 11.5 mph - N/A   Overcast
8:03 AM 57.2 °F 57.2 °F 100% 29.94 in 10.0 mi WSW 10.4 mph - N/A   Overcast
8:52 AM 57.2 °F 57.2 °F 100% 29.96 in 10.0 mi West 10.4 mph - N/A   Overcast
8:58 AM 57.2 °F 57.2 °F 100% 29.96 in 10.0 mi West 9.2 mph - N/A   Overcast
9:05 AM 57.2 °F 57.2 °F 100% 29.96 in 10.0 mi WSW 9.2 mph - N/A   Overcast
9:28 AM 55.4 °F 55.4 °F 100% 29.96 in 10.0 mi West 10.4 mph - N/A   Overcast
9:34 AM 55.4 °F 55.4 °F 100% 29.96 in 10.0 mi West 8.1 mph - N/A   Overcast
9:36 AM 55.4 °F 55.4 °F 100% 29.96 in 10.0 mi West 5.8 mph - N/A   Overcast
9:45 AM 55.4 °F 55.4 °F 100% 29.96 in 10.0 mi West 8.1 mph - N/A   Overcast
9:58 AM 56.7 °F 56.7 °F 100% 29.96 in 10.0 mi WSW 11.5 mph - N/A   Overcast
10:06 AM 57.2 °F 57.2 °F 100% 29.96 in 10.0 mi West 12.7 mph - N/A   Overcast
10:24 AM 57.2 °F 57.2 °F 100% 29.95 in 10.0 mi WSW 11.5 mph - N/A   Overcast
10:46 AM 59.0 °F 59.0 °F 100% 29.95 in 10.0 mi West 9.2 mph - N/A   Overcast
10:58 AM 59.2 °F 58.8 °F 99% 29.95 in 10.0 mi West 10.4 mph - N/A   Overcast
11:12 AM 59.0 °F 59.0 °F 100% 29.95 in 10.0 mi WSW 9.2 mph - N/A   Overcast
11:17 AM 60.8 °F 59.0 °F 94% 29.95 in 10.0 mi West 9.2 mph - N/A   Overcast
11:25 AM 60.8 °F 59.0 °F 94% 29.95 in 10.0 mi West 9.2 mph - N/A   Overcast
11:58 AM 61.5 °F 57.4 °F 86% 29.95 in 10.0 mi WSW 11.5 mph 17.3 mph N/A   Overcast
12:05 PM 62.6 °F 57.2 °F 82% 29.95 in 10.0 mi West 9.2 mph - N/A   Mostly Cloudy
12:58 PM 62.8 °F 54.9 °F 75% 29.95 in 10.0 mi West 11.5 mph - N/A   Overcast
1:58 PM 61.5 °F 55.4 °F 80% 29.95 in 10.0 mi WNW 9.2 mph - N/A   Overcast
2:58 PM 60.4 °F 54.9 °F 82% 29.94 in 10.0 mi WNW 15.0 mph - N/A   Overcast
3:58 PM 59.4 °F 56.5 °F 90% 29.92 in 10.0 mi WNW 12.7 mph - N/A   Overcast
4:58 PM 60.6 °F 55.4 °F 83% 29.94 in 10.0 mi West 12.7 mph - N/A   Overcast
5:08 PM 60.8 °F 55.4 °F 82% 29.94 in 10.0 mi West 9.2 mph - N/A   Overcast
5:12 PM 60.8 °F 55.4 °F 82% 29.94 in 10.0 mi West 11.5 mph - N/A   Overcast
5:27 PM 60.8 °F 55.4 °F 82% 29.94 in 10.0 mi West 11.5 mph - N/A   Overcast
5:30 PM 60.8 °F 55.4 °F 82% 29.94 in 10.0 mi West 9.2 mph - N/A   Overcast
5:33 PM 60.8 °F 53.6 °F 77% 29.94 in 10.0 mi West 8.1 mph - N/A   Overcast
5:58 PM 61.2 °F 54.7 °F 79% 29.93 in 10.0 mi West 9.2 mph - N/A   Mostly Cloudy
6:58 PM 59.7 °F 55.0 °F 84% 29.94 in 10.0 mi West 8.1 mph - N/A   Scattered Clouds
7:58 PM 56.7 °F 56.1 °F 98% 29.96 in 10.0 mi WSW 3.5 mph - N/A   Clear
8:58 PM 54.0 °F 54.0 °F 100% 29.96 in 10.0 mi WNW 3.5 mph - N/A   Clear
9:58 PM 55.0 °F 55.0 °F 100% 29.96 in 10.0 mi Calm Calm - N/A   Clear
10:58 PM 52.3 °F 52.3 °F 100% 29.96 in 10.0 mi SSE 4.6 mph - N/A   Clear
11:58 PM 53.1 °F 53.1 °F 100% 29.97 in 10.0 mi Variable 1.2 mph - N/A   Overcast